This is the latest recevied weather packets stored in our database for station/object NK7E-1. If no packets are shown the sender has not sent any weather packets the latest 10 day(s).
| Time | Temp. | Humidity | Pressure | Rain* | Wind** | Luminosity | Snow |
|---|---|---|---|---|---|---|---|
| 1777805398 | 22.78° C | 37% | 1014 hPa | 0 mm | - | - | - |
| 1777804798 | 22.78° C | 37% | 1013.9 hPa | 0 mm | - | - | - |
| 1777804199 | 22.78° C | 36% | 1013.9 hPa | 0 mm | - | - | - |
| 1777803599 | 23.33° C | 36% | 1014 hPa | 0 mm | - | - | - |
| 1777802998 | 23.33° C | 36% | 1014.1 hPa | 0 mm | - | - | - |
| 1777802401 | 23.33° C | 36% | 1014 hPa | 0 mm | - | - | - |
| 1777801800 | 23.33° C | 36% | 1013.9 hPa | 0 mm | - | - | - |
| 1777801200 | 23.33° C | 35% | 1014 hPa | 0 mm | - | - | - |
| 1777800600 | 23.33° C | 35% | 1014 hPa | 0 mm | - | - | - |
| 1777800000 | 23.33° C | 35% | 1014.2 hPa | 0 mm | - | - | - |
| 1777799399 | 23.89° C | 35% | 1014.3 hPa | 0 mm | - | - | - |
| 1777798800 | 23.89° C | 34% | 1014.2 hPa | 0 mm | - | - | - |
| 1777798200 | 23.89° C | 35% | 1014.3 hPa | 0 mm | - | - | - |
| 1777797600 | 23.33° C | 35% | 1014.4 hPa | 0 mm | - | - | - |
| 1777797000 | 23.33° C | 35% | 1014.5 hPa | 0 mm | - | - | - |
| 1777796400 | 23.89° C | 34% | 1014.5 hPa | 0 mm | - | - | - |
| 1777795800 | 23.89° C | 34% | 1014.7 hPa | 0 mm | - | - | - |
| 1777795201 | 23.89° C | 33% | 1014.7 hPa | 0 mm | - | - | - |
| 1777794600 | 24.44° C | 33% | 1014.6 hPa | 0 mm | - | - | - |
| 1777794000 | 24.44° C | 33% | 1014.6 hPa | 0 mm | - | - | - |
| 1777793400 | 24.44° C | 32% | 1014.6 hPa | 0 mm | - | - | - |
| 1777792800 | 24.44° C | 32% | 1014.5 hPa | 0 mm | - | - | - |
| 1777792200 | 24.44° C | 32% | 1014.5 hPa | 0 mm | - | - | - |
| 1777791605 | 25° C | 32% | 1014.6 hPa | 0 mm | - | - | - |
| 1777791002 | 25° C | 31% | 1014.7 hPa | 0 mm | - | - | - |
* Rain latest hour (hover to see other rain measurements)
** Current wind speed in m/s (hover to see current wind gust speed)